Overview Statistics Trail Chart Weather Telemetry Raw packets
 

This is the latest recevied weather packets stored in our database for station/object WX0ABE-13. If no packets are shown the sender has not sent any weather packets the latest 10 day(s).

<< 78 79 80 81 82 83 84 >>
Time Temp. Humidity Pressure Rain* Wind** Luminosity Snow
1787784157 30° C 40% 1021.6 hPa 0 mm - 178 W/m² -
1787783854 30° C 41% 1021.4 hPa 0 mm - 221 W/m² -
1787783549 30° C 42% 1021.7 hPa 0 mm - 208 W/m² -
1787783243 30° C 41% 1021.8 hPa 0 mm - 263 W/m² -
1787782939 30° C 42% 1021.7 hPa 0 mm - 198 W/m² -
1787782638 30° C 44% 1022 hPa 0 mm - 261 W/m² -
1787782334 30° C 41% 1021.9 hPa 0 mm - 242 W/m² -
1787782029 30.56° C 42% 1021.8 hPa 0 mm - 254 W/m² -
1787781724 31.11° C 39% 1021.8 hPa 0 mm - 307 W/m² -
1787781422 30.56° C 43% 1022 hPa 0 mm - 423 W/m² -
1787781122 31.11° C 41% 1022 hPa 0 mm - 319 W/m² -
1787780821 31.67° C 40% 1022.1 hPa 0 mm - 180 W/m² -
1787780521 31.11° C 43% 1021.9 hPa 0 mm - 172 W/m² -
1787780216 30.56° C 42% 1022 hPa 0 mm - 319 W/m² -
1787779912 30.56° C 43% 1022.2 hPa 0 mm - 350 W/m² -
1787779612 30.56° C 43% 1022.2 hPa 0 mm - 390 W/m² -
1787779312 30.56° C 44% 1022.4 hPa 0 mm - 378 W/m² -
1787779012 30.56° C 42% 1022.6 hPa 0 mm - 456 W/m² -
1787778708 31.11° C 43% 1022.8 hPa 0 mm - 466 W/m² -
1787778404 30.56° C 45% 1022.7 hPa 0 mm - 546 W/m² -
1787778099 30.56° C 45% 1023 hPa 0 mm - 551 W/m² -
1787777797 30.56° C 46% 1023 hPa 0 mm - 556 W/m² -
1787777495 30° C 45% 1023.2 hPa 0 mm - 567 W/m² -
1787777189 30.56° C 46% 1023.2 hPa 0 mm - 573 W/m² -
1787776888 30.56° C 42% 1023.2 hPa 0 mm - 583 W/m² -

* Rain latest hour (hover to see other rain measurements)
** Current wind speed in m/s (hover to see current wind gust speed)